Wind_Speed
25 25 24 24 25 25 25 25 24 23 23 24 23 23 21 21 21 20 19 18 16 16 15 14 14 13 12 11 10 10 10 10 9 9 9 9 9 8 8 9 9 9 9 9
26 25 25 26 26 26 26 26 25 24 24 26 25 24 23 22 21 20 20 18 16 15 15 14 14 14 13 12 11 11 11 11 10 11 10 9 9 9 10 10 10 10 10 10
26 24 26 27 26 27 26 26 26 26 26 27 26 26 24 23 23 21 20 19 17 16 16 15 14 13 14 14 13 12 12 12 12 11 11 10 11 11 11 11 11 11 11 11
27 26 27 27 26 27 27 26 27 27 27 28 28 28 24 23 24 22 21 21 19 17 16 15 16 16 15 15 14 14 13 13 13 13 12 12 12 12 12 12 12 12 12 12
26 26 27 27 26 27 27 27 28 28 29 29 29 30 26 24 24 23 22 22 20 19 18 18 17 17 17 16 16 15 15 15 15 14 14 14 13 13 13 14 14 14 13 13
25 25 27 26 27 28 28 28 29 29 30 31 29 31 29 25 24 23 23 22 22 20 20 19 19 18 18 17 17 17 16 16 16 16 16 16 16 15 15 16 16 16 15 15
25 25 26 27 27 28 28 29 30 31 32 32 30 32 31 26 24 23 22 23 23 21 20 20 20 19 18 18 17 17 17 17 17 17 17 17 17 17 17 17 18 17 17 17
26 26 26 26 27 27 28 28 29 31 32 32 31 33 32 30 27 25 24 25 25 23 22 21 21 20 19 19 18 18 18 18 18 18 18 19 19 19 19 19 19 19 18 18
26 26 26 26 27 27 27 27 27 29 29 30 32 33 32 31 29 27 26 25 25 24 23 22 22 21 21 20 20 19 19 19 18 18 19 20 20 21 20 20 20 20 19 19
26 26 25 26 27 28 28 28 27 28 29 30 31 31 31 30 30 28 27 27 26 26 26 25 24 23 22 21 20 20 21 21 20 20 20 20 20 20 20 21 21 20 20 20
26 26 26 27 27 27 28 28 28 29 30 30 31 31 28 28 29 29 28 28 26 26 26 26 26 25 24 23 22 22 23 23 23 23 22 22 23 23 22 22 22 22 21 20
26 26 26 27 27 28 29 28 29 30 30 30 31 30 27 27 27 27 27 27 26 25 25 26 27 27 25 25 24 25 24 24 24 24 25 24 24 24 23 23 23 22 21 21
25 26 27 26 28 29 29 28 29 29 30 30 31 30 28 27 27 27 27 27 27 26 26 26 26 26 26 26 26 26 26 26 25 25 25 24 24 24 24 23 22 22 22 21
25 26 27 27 28 29 29 29 29 29 30 30 30 29 27 27 28 28 27 27 28 27 27 26 26 26 26 27 27 27 27 27 26 25 24 25 25 24 24 24 24 24 23 23
26 27 26 27 28 29 30 29 30 30 29 29 29 28 27 27 28 27 27 28 27 27 27 27 27 27 27 27 27 28 27 27 26 24 25 25 25 25 24 24 25 25 25 25
25 25 25 26 27 28 29 29 29 30 30 29 29 27 27 27 27 27 26 26 26 26 26 26 27 27 27 27 28 28 27 26 26 25 25 25 25 25 25 25 25 25 25 25
22 23 23 24 26 27 28 27 27 27 28 29 28 26 26 26 27 26 25 24 24 25 26 25 25 26 27 28 28 27 26 26 25 25 26 26 26 26 26 26 26 26 25 26
21 22 23 23 24 27 26 26 27 28 27 28 27 27 26 26 27 28 27 26 26 26 26 26 26 26 26 26 26 26 26 25 25 25 26 26 27 27 27 27 27 26 26 26
22 22 22 23 24 25 25 25 26 27 28 27 28 29 28 26 26 27 28 28 27 28 28 28 28 28 27 27 26 26 26 25 26 26 27 27 27 27 27 27 27 27 26 26
21 22 23 23 24 25 24 25 26 27 28 28 28 28 28 28 27 26 27 28 29 29 29 30 29 28 28 28 27 26 26 26 27 27 28 28 28 27 28 28 28 28 27 27
21 22 23 24 25 25 24 25 26 27 28 28 28 27 27 27 27 27 27 28 28 29 28 28 27 27 28 28 27 28 28 27 28 28 28 28 28 28 29 29 28 27 28 27
19 20 21 22 24 23 21 23 25 26 27 26 27 27 27 28 28 29 28 28 28 28 29 29 28 28 28 27 27 28 28 28 27 28 28 28 28 27 27 28 27 27 27 27
18 18 18 19 21 21 21 22 23 23 24 25 27 28 29 29 29 30 30 29 29 28 28 29 28 28 28 28 28 29 29 28 28 28 28 27 27 26 26 26 26 26 26 26
17 17 18 18 19 20 21 22 23 24 24 24 25 26 28 29 29 29 29 29 29 29 29 28 29 29 28 28 28 29 29 29 28 28 28 27 26 25 25 26 26 26 26 26
16 16 17 18 18 19 21 22 23 24 24 24 25 26 27 27 28 28 29 29 29 30 30 30 30 30 29 29 29 29 29 29 29 29 28 27 26 26 26 26 26 26 26 26
15 16 16 16 17 18 19 20 21 23 23 24 25 26 26 27 26 26 27 28 29 29 30 30 31 30 29 29 29 29 30 29 28 28 27 27 27 26 26 27 27 26 26 26
Wind_Direction
249 248 248 249 250 250 251 251 252 250 250 252 253 253 253 251 253 255 258 263 269 272 275 280 277 279 284 292 296 296 301 310 309 308 310 306 309 306 302 302 303 301 295 294
248 249 248 247 247 248 250 252 252 251 250 252 252 253 254 252 253 255 257 259 264 269 270 276 277 275 279 282 288 291 297 302 304 302 303 303 304 301 300 301 301 300 298 295
249 248 247 248 248 249 249 251 252 251 250 251 253 253 253 254 253 256 257 256 258 265 267 269 270 272 279 282 282 285 290 293 294 293 292 293 293 297 295 296 297 299 297 293
246 245 246 246 247 249 249 249 251 251 251 251 253 254 251 253 253 256 258 254 255 259 261 264 268 269 273 278 277 278 282 286 287 285 285 287 290 291 293 292 291 293 294 292
246 245 246 246 246 247 247 247 249 251 252 251 251 254 251 251 253 257 257 253 252 255 258 264 266 265 267 274 275 273 275 281 281 280 282 282 283 287 289 290 289 289 289 287
244 244 246 248 247 246 247 247 249 250 252 251 249 252 252 250 253 255 252 252 251 254 256 261 264 264 267 271 274 273 272 276 276 278 280 279 279 281 286 288 288 287 286 284
244 244 247 247 248 247 248 249 249 251 252 252 250 250 251 250 252 251 251 252 252 254 256 259 262 263 267 270 271 270 271 275 277 277 279 282 278 279 283 287 287 285 282 280
245 245 247 249 250 251 251 251 252 254 255 254 251 250 251 250 250 248 250 250 251 254 255 259 260 262 265 268 269 270 273 276 277 277 278 282 281 281 284 286 285 283 281 279
249 248 248 250 251 251 250 250 252 254 255 255 253 253 252 251 250 249 251 251 252 253 254 256 260 261 263 264 266 268 271 274 275 276 277 279 279 279 282 284 284 281 279 276
251 252 249 250 252 252 251 250 249 250 254 255 255 255 254 251 249 248 251 253 251 252 256 260 261 260 261 262 264 266 269 272 273 275 276 276 279 282 282 283 283 281 277 273
252 253 251 251 252 252 250 249 248 250 254 255 256 256 256 255 252 251 252 253 254 256 260 262 260 260 259 261 264 267 269 273 272 274 275 276 277 282 283 282 281 280 277 274
254 255 254 252 252 252 251 249 248 250 253 255 257 257 257 257 255 253 254 253 256 258 260 260 259 258 259 262 264 266 267 271 272 273 274 275 277 280 281 280 280 279 277 276
256 256 256 254 251 251 250 247 248 250 252 253 254 255 255 256 255 252 254 256 256 257 259 260 259 258 260 262 262 264 266 269 271 273 274 275 277 279 279 279 280 281 279 278
257 258 258 256 254 253 250 249 249 250 252 253 254 254 253 255 254 252 254 257 257 257 257 257 259 259 261 263 263 265 266 268 269 272 275 275 275 277 279 280 280 280 280 278
257 260 260 257 254 253 252 249 249 251 254 256 256 254 255 257 257 256 256 257 257 255 256 257 259 260 260 261 263 265 266 267 268 270 273 273 274 276 278 280 279 278 278 278
259 260 261 257 254 252 250 248 249 251 253 255 255 254 255 256 256 255 254 254 254 254 255 256 255 257 259 260 261 263 263 265 267 269 272 273 274 275 277 278 278 278 277 277
261 261 260 259 256 254 252 251 252 252 252 253 255 256 255 255 255 252 252 252 252 255 255 255 256 258 260 260 260 260 262 264 267 270 272 274 274 275 275 277 277 277 276 276
260 261 260 259 256 256 255 253 252 251 252 255 257 255 255 255 255 253 253 254 255 256 258 257 257 258 260 262 261 262 264 265 268 270 272 273 272 272 273 275 276 277 277 277
262 262 263 261 259 259 258 256 255 254 256 256 256 255 254 254 255 253 253 254 256 257 258 258 258 258 260 262 263 263 266 267 267 269 271 272 272 272 272 273 275 277 278 277
264 264 264 262 261 262 258 259 258 258 257 256 257 257 255 255 256 255 255 254 254 255 256 258 259 260 261 261 260 262 266 267 268 270 271 271 272 272 273 274 275 275 275 276
262 263 263 259 261 262 260 260 259 257 258 258 258 258 257 258 258 258 259 257 256 257 258 258 258 259 260 259 258 261 265 267 268 270 271 272 273 273 273 273 274 274 274 275
263 264 265 261 259 260 259 258 259 260 260 260 261 260 260 260 261 261 261 259 258 260 260 259 259 260 262 262 261 262 264 266 267 269 270 271 273 274 273 272 273 273 273 274
264 266 265 264 263 263 263 260 260 259 259 260 261 261 261 260 261 262 262 259 258 260 260 259 259 259 260 260 261 262 263 265 267 267 268 269 271 272 272 272 272 272 272 273
266 269 269 268 265 262 261 263 261 261 261 261 262 262 262 260 260 262 263 261 260 259 259 259 257 258 259 260 260 260 262 263 265 267 268 268 269 271 273 272 271 271 272 273
270 268 268 271 269 266 263 264 263 261 261 260 262 264 263 262 262 263 262 261 260 259 259 258 257 258 259 260 260 261 263 264 265 265 265 265 266 269 271 272 272 271 272 274
271 271 272 273 273 274 268 265 264 264 262 260 261 263 264 264 262 262 260 260 260 259 259 258 258 258 258 259 259 261 262 262 264 266 266 265 266 268 270 271 272 271 272 272
Height
5831 5833 5835 5837 5838 5840 5842 5843 5845 5847 5848 5848 5849 5851 5853 5854 5855 5856 5857 5858 5859 5859 5860 5860 5860 5861 5861 5861 5861 5861 5860 5860 5859 5858 5858 5857 5857 5856 5855 5854 5853 5852 5851 5851
5826 5828 5830 5831 5832 5834 5835 5837 5839 5841 5842 5843 5844 5846 5848 5849 5850 5851 5853 5854 5855 5855 5856 5856 5857 5857 5858 5859 5858 5858 5858 5858 5857 5857 5856 5855 5854 5854 5853 5853 5852 5851 5850 5849
5820 5824 5824 5825 5826 5828 5830 5832 5834 5835 5836 5837 5839 5840 5843 5844 5845 5847 5849 5849 5851 5851 5853 5853 5854 5854 5855 5856 5856 5855 5855 5855 5855 5854 5853 5853 5852 5851 5851 5850 5849 5848 5847 5847
5813 5816 5817 5818 5821 5822 5824 5826 5827 5828 5829 5831 5833 5833 5837 5839 5840 5842 5843 5845 5846 5847 5848 5849 5850 5851 5851 5852 5852 5852 5852 5852 5851 5851 5851 5850 5850 5849 5848 5848 5847 5846 5845 5844
5808 5810 5811 5812 5815 5816 5818 5819 5820 5821 5822 5824 5826 5827 5831 5833 5834 5837 5838 5839 5841 5842 5844 5845 5846 5847 5847 5848 5848 5848 5848 5848 5848 5848 5848 5847 5847 5846 5845 5845 5844 5843 5842 5841
5802 5803 5804 5807 5808 5809 5811 5812 5813 5814 5815 5817 5821 5821 5823 5827 5829 5831 5832 5834 5836 5837 5839 5840 5841 5842 5843 5843 5843 5843 5844 5844 5844 5844 5844 5844 5843 5843 5842 5841 5840 5839 5839 5838
5795 5797 5798 5800 5801 5803 5804 5806 5807 5807 5808 5810 5814 5814 5817 5821 5824 5825 5827 5829 5830 5832 5834 5835 5836 5837 5838 5839 5839 5839 5839 5839 5839 5839 5839 5839 5839 5838 5838 5837 5836 5835 5835 5834
5788 5791 5792 5793 5795 5796 5798 5800 5801 5802 5803 5805 5806 5807 5812 5814 5818 5820 5821 5823 5825 5827 5829 5830 5830 5831 5832 5833 5834 5834 5835 5835 5835 5835 5835 5835 5834 5834 5833 5833 5832 5831 5830 5830
5781 5784 5786 5787 5788 5790 5791 5792 5795 5795 5796 5798 5799 5802 5805 5808 5811 5814 5815 5817 5819 5821 5823 5824 5825 5826 5827 5827 5828 5829 5830 5830 5830 5830 5830 5830 5829 5829 5828 5828 5826 5826 5825 5825
5774 5777 5779 5780 5781 5782 5784 5786 5787 5788 5789 5790 5793 5795 5799 5802 5804 5807 5810 5811 5813 5815 5816 5817 5819 5820 5821 5821 5822 5823 5824 5824 5825 5825 5824 5824 5824 5823 5823 5822 5821 5820 5820 5819
5768 5770 5772 5773 5774 5775 5777 5779 5780 5782 5783 5785 5786 5791 5793 5795 5798 5801 5803 5805 5807 5808 5809 5811 5812 5813 5814 5815 5816 5817 5818 5818 5818 5818 5818 5818 5818 5817 5817 5816 5816 5815 5814 5813
5761 5762 5764 5766 5768 5769 5770 5772 5774 5776 5778 5779 5781 5786 5787 5789 5791 5794 5796 5798 5800 5801 5803 5804 5806 5807 5808 5809 5809 5810 5811 5811 5811 5812 5812 5812 5811 5811 5810 5810 5809 5809 5808 5807
5754 5756 5757 5759 5762 5762 5763 5765 5767 5769 5771 5772 5774 5780 5781 5783 5785 5788 5790 5792 5793 5795 5796 5797 5799 5800 5801 5802 5802 5803 5803 5804 5805 5805 5804 5804 5804 5804 5804 5803 5803 5802 5802 5801
5748 5748 5750 5752 5753 5755 5757 5759 5761 5763 5764 5766 5768 5772 5774 5776 5778 5781 5783 5785 5786 5788 5789 5790 5791 5792 5793 5794 5794 5795 5796 5797 5797 5797 5797 5797 5797 5797 5797 5796 5796 5795 5795 5794
5741 5741 5742 5744 5745 5747 5749 5752 5754 5756 5758 5760 5763 5764 5767 5769 5771 5773 5775 5777 5778 5780 5781 5783 5783 5784 5785 5786 5786 5787 5788 5789 5790 5790 5790 5790 5790 5790 5790 5789 5789 5788 5788 5787
5734 5735 5735 5737 5738 5739 5741 5744 5747 5749 5751 5753 5755 5758 5760 5762 5764 5766 5767 5769 5771 5772 5774 5775 5776 5777 5778 5778 5779 5779 5780 5781 5782 5783 5783 5783 5783 5783 5783 5782 5781 5781 5780 5780
5728 5729 5729 5730 5732 5732 5735 5738 5740 5742 5744 5746 5748 5752 5753 5755 5757 5759 5760 5762 5763 5765 5766 5767 5768 5770 5770 5771 5771 5771 5772 5773 5774 5775 5775 5775 5775 5775 5775 5775 5774 5773 5773 5772
5723 5723 5723 5724 5726 5727 5732 5732 5733 5735 5737 5739 5741 5744 5746 5748 5749 5751 5753 5755 5756 5757 5759 5760 5761 5762 5763 5764 5764 5764 5765 5766 5767 5767 5767 5767 5767 5767 5767 5767 5766 5765 5765 5764
5718 5718 5718 5719 5719 5721 5724 5725 5726 5728 5730 5732 5734 5736 5738 5740 5742 5743 5745 5747 5748 5750 5750 5751 5753 5754 5755 5756 5756 5757 5757 5758 5758 5759 5759 5759 5759 5759 5759 5758 5758 5757 5757 5756
5712 5712 5713 5713 5713 5714 5718 5718 5719 5722 5723 5725 5727 5729 5731 5732 5734 5737 5738 5739 5740 5741 5742 5743 5744 5745 5746 5747 5748 5749 5749 5750 5751 5751 5751 5751 5751 5751 5751 5750 5750 5749 5749 5748
5705 5705 5706 5706 5706 5707 5710 5711 5713 5716 5718 5719 5720 5722 5723 5725 5727 5729 5729 5730 5731 5732 5733 5734 5736 5737 5737 5738 5739 5740 5741 5741 5742 5742 5742 5743 5743 5742 5742 5741 5741 5740 5740 5740
5699 5699 5700 5700 5700 5703 5703 5705 5707 5708 5709 5711 5712 5714 5716 5717 5718 5720 5721 5722 5723 5724 5725 5726 5727 5728 5729 5730 5731 5732 5733 5733 5733 5734 5734 5734 5734 5733 5732 5733 5732 5732 5732 5732
5693 5694 5694 5695 5696 5696 5696 5698 5699 5700 5701 5703 5705 5706 5707 5709 5710 5711 5712 5713 5714 5715 5716 5717 5718 5720 5720 5721 5722 5723 5724 5725 5725 5725 5726 5725 5725 5725 5724 5724 5724 5724 5724 5724
5688 5689 5689 5689 5689 5689 5690 5691 5692 5692 5693 5695 5696 5697 5699 5700 5701 5702 5703 5704 5705 5706 5707 5708 5710 5711 5712 5713 5713 5714 5715 5716 5716 5717 5717 5717 5717 5717 5717 5716 5716 5716 5716 5716
5684 5683 5683 5683 5683 5683 5683 5684 5685 5685 5686 5687 5688 5689 5690 5691 5693 5693 5694 5695 5696 5697 5698 5700 5701 5702 5703 5704 5705 5706 5706 5707 5707 5708 5708 5709 5709 5709 5709 5709 5708 5708 5708 5707
5679 5679 5678 5678 5677 5677 5677 5677 5678 5679 5679 5680 5681 5682 5683 5683 5684 5684 5685 5686 5687 5688 5689 5690 5692 5693 5694 5695 5696 5697 5698 5699 5699 5699 5700 5700 5701 5701 5701 5701 5700 5700 5700 5699